Preview of NWS' New Version of Forecast
This preview is not operational and should not be used for support decisions.

Regional Weather Roundup (RWR)

Issued by National Weather Service (NWS)

                            
000
ASUS42 KTBW 252316
RWRFL 
FLORIDA REGIONAL WEATHER ROUNDUP
NATIONAL WEATHER SERVICE TAMPA BAY RUSKIN FL
700 PM EDT SAT MAY 25 2019

NOTE: "FAIR" INDICATES FEW OR NO CLOUDS BELOW 12,000 FEET WITH NO
SIGNIFICANT WEATHER AND/OR OBSTRUCTIONS TO VISIBILITY.

FLZ001>010-012>015-112-114-115-260000-
PANHANDLE FLORIDA
  
CITY           SKY/WX    TMP DP  RH WIND       PRES   REMARKS
PENSACOLA      FAIR      92  64  39 S6        30.08S                  
PENSACOLA NAS  FAIR      91  65  41 SW5       30.09S                  
MILTON NAS     PTSUNNY   92  66  42 SW7       30.09S                  
CRESTVIEW      FAIR      97  62  31 VRB3      30.09S HX  98           
DUKE FIELD     FAIR      94  63  35 NW5       30.07F HX  95           
VALPARAISO     FAIR      93  62  35 SW8       30.07F                  
PANAMA CITY    FAIR      92  70  48 SW9       30.06S HX  97           
APALACHICOLA   FAIR      87  73  62 SW9       30.08F                  

STATION/POSITION SKY/WX   TEMP    WIND        PRES    WAVE   SWELL
                          AIR SEA DIR/SP/G            HT/PER HT/PER
                          (F)     (DEG/KT/KT) (MB)    (FT/S) (FT/S)
30.1N   87.6W                                   N/A     2/ 7
29.2N   88.2W                      60/ 10/ 12 1019.6F   3/ 7   3/ 7
PANAMA CITY BEAC           84 85  260/  9/ 11 1019.0S
TOWER C          NOT AVBL

$$
FLZ011-016>038-118-127-128-134-139-239-260000-
NORTH FLORIDA
  
CITY           SKY/WX    TMP DP  RH WIND       PRES   REMARKS
MARIANNA       FAIR      95  61  32 SE6       30.06F HX  95           
TALLAHASSEE    FAIR      97  66  36 VRB5      30.06S HX 100           
PERRY          FAIR      97  64  33 NE6       30.07F HX  99           
LIVE OAK       SUNNY     95  63  34 VRB7      30.07S HX  96           
CROSS CITY     FAIR      95  63  33 E6        30.07S HX  96           
LAKE CITY      FAIR      93  63  36 CALM      30.08F                  
GAINESVILLE    FAIR      95  66  38 E15       30.11S HX  98           
WILLISTON      FAIR      92  64  39 E10       30.09R                  
PALATKA        FAIR      91  64  40 SE12      30.12S                  
MAYPORT NAS    FAIR      86  69  56 SE10      30.11S                  
JACKSONVILLE   FAIR      90  64  42 SE12      30.09S                  
JAX NAS        FAIR      92  65  40 SE13      30.11R                  
JAX CECIL      SUNNY     95  64  36 E6        30.09S HX  97           
FERNANDINA BEA FAIR      85  73  65 SE13      30.10S                  
ST AUGUSTINE   FAIR      84  69  60 SE9       30.13S                  
PALM COAST     SUNNY     84  66  54 E12       30.13                   

STATION/POSITION SKY/WX   TEMP    WIND        PRES    WAVE   SWELL
                          AIR SEA DIR/SP/G            HT/PER HT/PER
                          (F)     (DEG/KT/KT) (MB)    (FT/S) (FT/S)
SHELL POINT      NOT AVBL
KEATON BEACH               86     250/  6/  7 1018.5F
CEDAR KEY                  86     310/  5/  7 1018.6S
FERNANDINA                 89 84  140/  8/ 11 1019.9F
30.7N   81.3W                 82                N/A     2/ 7
MAYPORT                    85 83  140/  8/ 12 1019.9F
31.4N   80.9W              81 81  170/  8/ 10 1019.0S   1/ 8   2/ 8
ST AUGUSTINE               81 83  160/ 10/ 10 1020.4S

$$
FLZ040-043>046-052-053-057-058-063-144-260000-
INTERIOR CENTRAL FLORIDA
  
CITY           SKY/WX    TMP DP  RH WIND       PRES   REMARKS
OCALA          FAIR      92  64  39 E12G18    30.10R                  
LEESBURG       FAIR      88  64  44 E14       30.11R                  
SANFORD        FAIR      86  68  54 E13       30.12R                  
ORLANDO EXEC   FAIR      87  66  49 E14       30.12R                  
ORLANDO INTL   FAIR      86  67  52 E14       30.11R                  
KISSIMMEE      FAIR      86  69  56 E16       30.12R                  
WINTER HAVEN   FAIR      88  67  49 E15       30.11R                  
LAKELAND       MOSUNNY   88  64  45 E14       30.10R                  
BARTOW         FAIR      86  68  54 E15       30.09S                  
SEBRING        FAIR      85  68  56 E15       30.10R                  
OKEECHOBEE     FAIR      81  66  61 E8        30.10R                  

$$
FLZ041-047-054-059-064-141-147-260000-
EAST CENTRAL FLORIDA
  
CITY           SKY/WX    TMP DP  RH WIND       PRES   REMARKS
ORMOND BEACH   SUNNY     82  68  61 E7        30.13S                  
DAYTONA BEACH  FAIR      83  72  69 E7        30.13S                  
DELAND         FAIR      86  66  51 E12       30.12S                  
NEW SMYRNA BEA SUNNY     82  72  69 SE8       30.14S                  
TITUSVILLE     SUNNY     86  70  58 E10       30.13S                  
CAPE CANAVERAL FAIR      82  63  52 E10       30.11F                  
PATRICK AFB    FAIR      82  72  71 E12       30.12S                  
MELBOURNE      FAIR      82  70  66 E14       30.12S                  
VERO BEACH     FAIR      80  70  71 NE15      30.11F                  
FT PIERCE      FAIR      80  67  64 E14       30.11S                  
STUART         SUNNY     82  64  54 E12       30.12S                  

STATION/POSITION SKY/WX   TEMP    WIND        PRES    WAVE   SWELL
                          AIR SEA DIR/SP/G            HT/PER HT/PER
                          (F)     (DEG/KT/KT) (MB)    (FT/S) (FT/S)
28.5N   80.2W              81      70/ 10/ 14 1020.6
28.9N   78.5W              79 80   40/  6/  8 1020.8S   2/ 7   2/ 7
TRIDENT PIER               81 83   70/  9/ 11 1021.5S
28.4N   80.5W                 81                N/A     2/ 8
27.5N   80.2W                 78                N/A     3/ 4

$$
FLZ050-056-061-142-242-148-248-149-249-151-251-155-255-
160-260-260000-
WEST CENTRAL FLORIDA
  
CITY           SKY/WX    TMP DP  RH WIND       PRES   REMARKS
CRYSTAL RIVER  FAIR      91  64  40 E7        30.08R                  
INVERNESS      FAIR      91  68  46 E7        30.09S HAZE    HX  95   
BROOKSVILLE    FAIR      91  65  41 E7G17     30.08S                  
CLEARWATER AIR FAIR      90  63  40 E8        30.06S                  
ST PETE CLEARW FAIR      90  67  46 E10       30.06R                  
TAMPA INTL     FAIR      92  63  38 NE17      30.07R                  
TAMPA EXEC     FAIR      90  66  45 E12G20    30.09R                  
PLANT CITY     FAIR      90  66  45 E12G17    30.11R                  
MACDILL AFB    FAIR      91  65  42 E17       30.06R                  
PETER O KNIGHT CLOUDY    91  66  43 E16       30.07R                  
ST PETERSBURG  FAIR      88  72  58 E21       30.05R                  
SARASOTA       PTSUNNY   92  62  36 E16       30.03S                  
VENICE         FAIR      91  63  38 E14G21    30.05R                  

STATION/POSITION SKY/WX   TEMP    WIND        PRES    WAVE   SWELL
                          AIR SEA DIR/SP/G            HT/PER HT/PER
                          (F)     (DEG/KT/KT) (MB)    (FT/S) (FT/S)
27.3N   84.2W                 80                N/A     2/ 6
CLEARWATER BEACH           83 86  340/ 12/ 16 1018.2S
MIDDLE TAMPA BAY           89     110/ 15/ 21 1017.9R
VENICE                     90 82   80/ 15/ 18 1017.5R

$$
FLZ066-069-070-075>078-162-262-165-265-260000-
SOUTHWEST FLORIDA AND KEYS
  
CITY           SKY/WX    TMP DP  RH WIND       PRES   REMARKS
PUNTA GORDA    FAIR      87  64  46 E17       30.07R                  
FT MYERS       FAIR      86  66  51 E13G21    30.05R                  
SOUTHWEST INTL FAIR      87  66  49 E20G25    30.05S                  
NAPLES         FAIR      87  64  46 E17       30.04R                  
MARCO ISLAND   FAIR      87  65  47 E14G20    30.05R                  
IMMOKALEE      FAIR      86  66  51 E14G22    30.05R                  
MARATHON       FAIR      85  65  51 E16G24    30.03S                  
KEY WEST NAS   FAIR      84  68  58 E16       30.02S                  
KEY WEST INTL  FAIR      82  69  64 E15G22    30.03S                  

STATION/POSITION SKY/WX   TEMP    WIND        PRES    WAVE   SWELL
                          AIR SEA DIR/SP/G            HT/PER HT/PER
                          (F)     (DEG/KT/KT) (MB)    (FT/S) (FT/S)
NAPLES                     88 84              1017.2R
DRY TORTUGAS               81      90/ 15/ 16 1016.8R
SAND KEY                   80                 1016.5F
SOMBRERO KEY               80                 1016.2S

$$
FLZ067-068-071>074-168-172>174-260000-
SOUTHEAST FLORIDA 
  
CITY           SKY/WX    TMP DP  RH WIND       PRES   REMARKS
W PALM BEACH   FAIR      81  67  62 NE20      30.09F                  
BOCA RATON     MOSUNNY   82  68  61 E15G24    30.09R                  
FT LAUDER-EXEC PTSUNNY   81  68  64 NE13G23   30.08R                  
FT LAUDERDALE  FAIR      81  69  67 NE14G23   30.07R                  
POMPANO BEACH  FAIR      82  68  62 NE15      30.08R                  
PEMBROKE PINES PTSUNNY   81  68  64 E18       30.09R                  
OPA LOCKA      FAIR      82  67  60 E18       30.08R                  
MIAMI          FAIR      83  64  52 E18G25    30.07S                  
WEST KENDALL   LGT RAIN  82  65  56 E20G28    30.06R                  
HOMESTEAD      FAIR      81  68  63 NE15      30.05S                  

STATION/POSITION SKY/WX   TEMP    WIND        PRES    WAVE   SWELL
                          AIR SEA DIR/SP/G            HT/PER HT/PER
                          (F)     (DEG/KT/KT) (MB)    (FT/S) (FT/S)
PORT EVERGLADES            80      50/ 13/ 18 1018.4R
VIRGINIA KEY               80 83   50/ 14/ 17 1017.7R
LAKE WORTH                 78 81              1020.0S
SETTLEMENT POINT           78      60/ 19/ 22 1019.2F

$$